Flag for Finland Weather past 2 weeks in Rovaniemi, Finland

Now
59 °F

Overcast.


Feels Like: 60 °F
Forecast: 49 / 67 °F
Wind: 3 mph from North

Location: Rovaniemi Airport

Current Time: Aug 4, 2015 at 7:42:12 PM

Latest Report: Aug 4, 2015 at 7:20 PM


Visibility: N/A

Pressure: 30.09 "Hg

Humidity: 72%

Dew point: 50 °F

Location of RovaniemiLocation

Historic Weather in Rovaniemi — Graph

°F

Rovaniemi temperature yesterday

Maximum temperature yesterday: 63 °F (at 2:50 PM)
Minimum temperature yesterday: 52 °F (at 4:20 AM)
Average temperature yesterday: 57 °F

Past Weeks' High & Low Weather Summary

 TemperatureHumidityPressure
High66 °F (Jul 26, 2:50 PM)100% (Jul 20, 10:50 PM)30.07 "Hg (Jul 20, 10:50 PM)
Low46 °F (Jul 23, 3:50 AM)52% (Jul 26, 2:50 PM)29.33 "Hg (Jul 30, 4:50 AM)
Average56 °F89%29.68 "Hg
* Reported Jul 20 6:20 PM — Aug 4 6:20 PM, Rovaniemi, Weather by CustomWeather, © 2015

Note: Actual official high and low records may vary slightly from our data, if they occured in-between our weather recording intervals... More about our weather records

Advertising

Rovaniemi weather history for previous 24 hours

 ConditionsComfort  
Time TempWeatherWind HumidityBarometerVisibility
6:20 PM
Tue, Aug 4
59 °FPartly sunny.6 mph68%30.07 "HgN/A
5:50 PM61 °FPartly sunny.5 mph63%30.07 "HgN/A
5:20 PM59 °FPartly sunny.6 mph68%30.07 "HgN/A
4:50 PM59 °FBroken clouds.6 mph68%30.07 "HgN/A
4:20 PM61 °FBroken clouds.6 mph63%30.07 "HgN/A
3:50 PM59 °FBroken clouds.7 mph68%30.07 "HgN/A
3:20 PM59 °FBroken clouds.8 mph68%30.07 "HgN/A
2:50 PM59 °FBroken clouds.8 mph68%30.07 "HgN/A
2:20 PM59 °FBroken clouds.9 mph68%30.07 "HgN/A
1:50 PM57 °FBroken clouds.8 mph72%30.07 "HgN/A
1:20 PM57 °FPartly sunny.8 mph72%30.07 "HgN/A
12:50 PM57 °FBroken clouds.7 mph72%30.07 "HgN/A
12:20 PM55 °FPartly sunny.8 mph77%30.07 "HgN/A
11:50 AM55 °FBroken clouds.5 mph77%30.04 "HgN/A
11:20 AM54 °FPartly sunny.7 mph82%30.04 "HgN/A
10:50 AM54 °FBroken clouds.8 mph82%30.04 "HgN/A
10:20 AM54 °FBroken clouds.8 mph82%30.04 "HgN/A
9:50 AM54 °FBroken clouds.8 mph82%30.04 "HgN/A
9:20 AM52 °FPartly sunny.8 mph88%30.04 "HgN/A
8:50 AM52 °FBroken clouds.8 mph88%30.04 "HgN/A
8:20 AM52 °FBroken clouds.9 mph88%30.01 "HgN/A
7:50 AM52 °FPartly sunny.9 mph88%30.01 "HgN/A
7:20 AM50 °FPartly sunny.7 mph94%30.01 "HgN/A
6:50 AM50 °FPartly sunny.8 mph94%30.01 "HgN/A
6:20 AM48 °FSunny.6 mph100%30.01 "Hg10 mi
5:50 AM48 °FSunny.7 mph100%30.01 "Hg10 mi
5:20 AM48 °FSunny.8 mph100%30.01 "Hg10 mi
4:50 AM48 °FClear.8 mph100%30.01 "Hg10 mi
4:20 AM50 °FClear.8 mph94%30.01 "Hg10 mi
3:50 AM50 °FClear.8 mph94%30.01 "Hg10 mi
3:20 AM50 °FClear.9 mph94%29.98 "Hg10 mi
2:50 AM52 °FClear.6 mph94%29.98 "Hg10 mi
2:20 AM52 °FClear.8 mph94%29.98 "Hg10 mi
1:50 AM54 °FClear.9 mph88%29.98 "Hg10 mi
1:20 AM54 °FClear.8 mph88%29.98 "Hg10 mi
12:20 AM54 °FClear.7 mph88%29.98 "Hg10 mi
11:50 PM
Mon, Aug 3
55 °FClear.6 mph82%29.98 "Hg10 mi
11:20 PM55 °FSunny.6 mph82%29.98 "Hg10 mi
10:50 PM55 °FSunny.7 mph82%29.95 "Hg10 mi
10:20 PM57 °FSunny.7 mph77%29.95 "Hg10 mi
9:50 PM57 °FSunny.6 mph77%29.95 "Hg10 mi
9:20 PM57 °FSunny.6 mph77%29.95 "Hg10 mi
8:50 PM57 °FSunny.8 mph77%29.95 "Hg10 mi
8:20 PM59 °FSunny.7 mph72%29.95 "Hg10 mi
7:50 PM59 °FSunny.10 mph72%29.95 "Hg10 mi
7:20 PM61 °FSunny.12 mph68%29.92 "Hg10 mi
Weather by CustomWeather, © 2015

See weather overviewHow to use our weather pages